Regional Weather Roundup
Issued by NWS Cleveland, OH

Home | Current Version | Previous Version | Text Only | Print | Product List | Glossary Off
Versions: 1 2 3 4 5 6 7 8 9 10 11 12 13 14 15 16 17 18 19 20 21 22 23 24 25 26 27 28 29 30 31 32 33 34 35 36 37 38 39 40 41 42 43 44 45 46 47 48 49 50

483
ASUS41 KCLE 091300
RWRCLE
OHIO REGIONAL WEATHER ROUNDUP
NATIONAL WEATHER SERVICE WILMINGTON, OH
800 AM EST FRI DEC 09 2016

NOTE: "FAIR" INDICATES FEW OR NO CLOUDS BELOW 12,000 FEET WITH NO
SIGNIFICANT WEATHER AND/OR OBSTRUCTIONS TO VISIBILITY.

OHZ001>008-015>018-024>027-034-035-043-044-091400-
   NORTHWEST OHIO

CITY           SKY/WX    TMP DP  RH WIND       PRES   REMARKS
DEFIANCE       FLURRIES  24  17  74 W10       30.40R WCI  14
FINDLAY        CLOUDY    23  16  74 W16G23    30.39R WCI  10
TOLEDO EXPRESS CLOUDY    22  21  96 W12       30.37R WCI  10
TOLEDO EXEC    LGT SNOW  23  20  88 W12       30.38S FOG     WCI  12
LIMA           CLOUDY    20  17  88 W16       30.41R WCI   6
$$

OHZ009>014-019>023-028>033-038-089-091400-
   NORTHEAST OHIO

CITY           SKY/WX    TMP DP  RH WIND       PRES   REMARKS
CLE-HOPKINS    FLURRIES  25  18  74 W13       30.37R WCI  14
CLE-LAKEFRONT  CLOUDY    26  20  77 SW20      30.34R WCI  12
CUY CO. ARPT   LGT SNOW  25  21  86 W17G25    30.30S WCI  11
LORAIN-ELYRIA  FLURRIES  23  17  78 W14       30.36R WCI  11
ASHTABULA      SNOW      24  22  91 SW10      30.28R VSB 1/2 WCI  14
AKRON-CANTON   FLURRIES  22  16  78 W12G20    30.33R WCI  10
WOOSTER        NOT AVBL
MANSFIELD      LGT SNOW  20  17  88 W12       30.35R FOG     WCI   8
YOUNGSTOWN     LGT SNOW  22  18  85 W15       30.28R FOG     WCI   9
$$

OHZ042-051>053-060>062-070>072-077>081-091400-
  SOUTHWEST OHIO

CITY           SKY/WX    TMP DP  RH WIND       PRES   REMARKS
CINC-COVINGTON FLURRIES  21  13  71 W10       30.51R WCI  10
CINC-LUNKEN    CLOUDY    23  14  68 W14       30.55R WCI  11
HAMILTON       CLOUDY    23  14  68 W8        30.53R WCI  14
DAYTON         NOT AVBL
WRIGHT-PAT AFB NOT AVBL
DAYTON GENERAL FAIR      19  13  77 W6        30.48R WCI  11
WILMINGTON     FAIR      17  13  84 W7        30.47R WCI   8
$$

OHZ036-037-039>041-045>050-054>059-063>069-073>076-082>088-091400-
  CENTRAL AND SOUTHEAST OHIO

CITY           SKY/WX    TMP DP  RH WIND       PRES   REMARKS
COLUMBUS       FLURRIES  21  15  78 W15       30.44S WCI   8
OSU AIRPORT    MOCLDY    20  15  81 W10       30.44R WCI   9
BOLTON FIELD   CLOUDY    19  16  86 W8        30.45R WCI   9
RICKENBACK AFB NOT AVBL
NEWARK         CLOUDY    21  14  74 W8        30.42R WCI  11
MARION         FLURRIES  21  16  81 W15       30.40R WCI   8
LANCASTER      CLOUDY    21  15  78 W9        30.45R WCI  11
ZANESVILLE     CLOUDY    22  15  75 W9        30.41R WCI  12
NEW PHILLY     CLOUDY    22  18  85 VRB5      30.39R WCI  16
$$




USA.gov is the U.S. government's official web portal to all federal, state and local government web resources and services.